Location: ?????
(44.4284°N, 135.2222°E)
Time: 07:29:34
(UTC+00:00)

Cosmos 2341 Rocket - Pass Details

Date: 19 May 2025
Orbit: 966 x 1004 km, 82.9° (Epoch: 23 June)

Event Time Altitude Azimuth Distance (km) Brightness Sun altitude
Rises 12:54:37 0° 348° (NNW) 3,691 8.4 -20.0°
Reaches altitude 10° 12:57:11 10° 344° (NNW) 2,734 7.5 -20.2°
Maximum altitude 13:03:17 57° 268° (W) 1,137 4.4 -20.7°
Enters shadow 13:06:50 25° 200° (SSW) 1,842 5.1 -21.0°
